This is the latest recevied weather packets stored in our database for station/object VA7IS. If no packets are shown the sender has not sent any weather packets the latest 10 day(s).
| Time | Temp. | Humidity | Pressure | Rain* | Wind** | Luminosity | Snow |
|---|---|---|---|---|---|---|---|
| 1777911305 | 19.44° C | 55% | 1009.3 hPa | 0 mm | - | - | - |
| 1777911004 | 19.44° C | 55% | 1009.2 hPa | 0 mm | - | - | - |
| 1777909804 | 19.44° C | 55% | 1009.1 hPa | 0 mm | - | - | - |
| 1777907404 | 15.56° C | 46% | 1009.2 hPa | 0 mm | - | - | - |
| 1777906804 | 15.56° C | 47% | 1009.1 hPa | 0 mm | - | - | - |
| 1777904104 | 14.44° C | 54% | 1008.8 hPa | 0 mm | - | - | - |
| 1777901704 | 13.89° C | 58% | 1008.6 hPa | 0 mm | - | - | - |
| 1777901404 | 13.89° C | 58% | 1008.6 hPa | 0 mm | - | - | - |
| 1777900804 | 13.89° C | 58% | 1008.5 hPa | 0 mm | - | - | - |
| 1777900504 | 13.89° C | 58% | 1008.5 hPa | 0 mm | - | - | - |
| 1777898705 | 14.44° C | 57% | 1008.4 hPa | 0 mm | - | - | - |
| 1777897504 | 14.44° C | 57% | 1008.4 hPa | 0 mm | - | - | - |
| 1777895404 | 15° C | 57% | 1008.4 hPa | 0 mm | - | - | - |
| 1777893904 | 15° C | 57% | 1008.4 hPa | 0 mm | - | - | - |
| 1777891203 | 15.56° C | 56% | 1008.3 hPa | 0 mm | - | - | - |
| 1777890904 | 15.56° C | 56% | 1008.3 hPa | 0 mm | - | - | - |
| 1777890604 | 15.56° C | 56% | 1008.3 hPa | 0 mm | - | - | - |
| 1777889704 | 16.11° C | 55% | 1008.3 hPa | 0 mm | - | - | - |
| 1777885204 | 16.11° C | 54% | 1008.2 hPa | 0 mm | - | - | - |
| 1777879504 | 16.67° C | 53% | 1007.8 hPa | 0 mm | - | - | - |
| 1777878604 | 16.67° C | 54% | 1007.9 hPa | 0 mm | - | - | - |
| 1777876804 | 17.22° C | 53% | 1007.7 hPa | 0 mm | - | - | - |
| 1777875304 | 17.22° C | 51% | 1007.7 hPa | 0 mm | - | - | - |
| 1777871704 | 18.33° C | 49% | 1007.7 hPa | 0 mm | - | - | - |
| 1777871404 | 18.33° C | 50% | 1007.8 hPa | 0 mm | - | - | - |
* Rain latest hour (hover to see other rain measurements)
** Current wind speed in m/s (hover to see current wind gust speed)